This demonstration page uses our WeatherBlox Daily Observations layout. Learn more.

Left ArrowRight Arrow

Hourly Observations for July 25, 2018

Temp ( °F °C ) Dew Point ( °F °C ) Humidity (%) Winds ( mph kmh ) Pressure ( in mb ) Visibility ( mi km ) Precip ( " mm )
12:53 am 00:53 Clear 83 28.3 56 13.3 40 40 E 8 13 29.98 1015 10 16 0.00 0.00
1:53 am 01:53 Partly Cloudy 83 28.3 56 13.3 40 40 E 9 15 29.98 1015 10 16 0.00 0.00
2:53 am 02:53 Clear 82 27.8 55 12.8 40 40 E 9 15 29.98 1015 10 16 0.00 0.00
3:53 am 03:53 Mostly Clear 81 27.2 54 12.2 39 39 E 9 15 29.97 1015 10 16 0.00 0.00
4:53 am 04:53 Mostly Cloudy 81 27.2 54 12.2 39 39 ENE 8 13 29.98 1015 10 16 0.00 0.00
5:53 am 05:53 Mostly Clear 80 26.7 53 11.7 39 39 ENE 6 9 29.97 1015 10 16 0.00 0.00
6:53 am 06:53 Cloudy 79 26.1 54 12.2 42 42 NNE 9 15 30.00 1016 10 16 0.00 0.00
7:53 am 07:53 Cloudy 79 26.1 55 12.8 44 44 N 16 26 30.02 1017 10 16 0.00 0.00
8:53 am 08:53 Sunny 83 28.3 61 16.1 48 48 ENE 5 7 30.00 1016 10 16 0.00 0.00
9:53 am 09:53 Sunny 86 30 59 15 40 40 ENE 5 7 30.00 1016 10 16 0.00 0.00
10:53 am 10:53 Sunny 89 31.7 58 14.4 35 35 SE 10 17 30.00 1016 10 16 0.00 0.00
11:53 am 11:53 Sunny 92 33.3 57 13.9 31 31 E 6 9 29.99 1016 10 16 0.00 0.00
12:53 pm 12:53 Sunny 94 34.4 56 13.3 28 28 E 7 11 29.97 1015 10 16 0.00 0.00
1:53 pm 13:53 Sunny 97 36.1 57 13.9 26 26 ESE 9 15 29.94 1014 10 16 0.00 0.00
2:53 pm 14:53 Sunny 97 36.1 57 13.9 26 26 VRB 3 6 29.90 1013 10 16 0.00 0.00
3:53 pm 15:53 Mostly Sunny 100 37.8 57 13.9 24 24 ENE 5 7 29.87 1012 10 16 0.00 0.00
4:53 pm 16:53 Mostly Sunny 98 36.7 56 13.3 24 24 undefined N/A 29.85 1011 10 16 0.00 0.00
5:53 pm 17:53 Sunny 99 37.2 57 13.9 25 25 S 8 13 29.83 1010 10 16 0.00 0.00
6:53 pm 18:53 Cloudy 96 35.6 62 16.7 32 32 SE 18 30 29.83 1010 10 16 0.00 0.00
7:06 pm 19:06 Cloudy with Light Rain 91 32.8 66 18.9 44 44 S 14 22 29.77 1008 9 14 0.00 0.03
7:18 pm 19:18 Cloudy with Thunderstorms 91 32.8 65 18.3 42 42 SSE 16 26 29.77 1008 10 16 0.00 0.03
7:40 pm 19:40 Mostly Cloudy with Nearby Thunderstorms 92 33.3 62 16.7 37 37 SE 15 24 29.77 1008 10 16 0.00 0.03
7:53 pm 19:53 Partly Cloudy with Nearby Thunderstorms 92 33.3 62 16.7 37 37 SE 12 19 29.85 1011 10 16 0.00 0.03
8:08 pm 20:08 Partly Cloudy 92 33.3 62 16.7 37 37 SSE 17 28 29.77 1008 10 16 0.00 0.00
8:53 pm 20:53 Sunny 91 32.8 62 16.7 38 38 SSE 15 24 29.86 1011 10 16 0.00 0.00
9:53 pm 21:53 Clear 88 31.1 61 16.1 40 40 SSE 12 19 29.87 1012 10 16 0.00 0.00
10:53 pm 22:53 Clear 87 30.6 62 16.7 43 43 SE 13 20 29.87 1012 10 16 0.00 0.00
11:53 pm 23:53 Clear 84 28.9 60 15.6 44 44 SSE 8 13 29.87 1012 10 16 0.00 0.00

Powered by AerisWeather